Location: Plum
(40.5000°N, 79.7500°W)
Time: 09:31:40
(UTC-04:00)

MOZ.5/SAFIR/RUBIN 5/SL-8 - Visible Passes

Search period start: 06 July 2015 00:00
Search period end: 16 July 2015 00:00
Orbit: 680 x 706 km, 97.8° (Epoch: 06 July)

Date Brightness Start Highest point End Pass type
(mag) Time Alt. Az. Time Alt. Az. Time Alt. Az.
06 Jul 6.5 04:55:04 10° ESE 04:58:41 23° ENE 05:02:26 10° NNE visible
08 Jul 6.8 04:38:27 10° E 04:41:10 16° ENE 04:44:06 10° NNE visible
09 Jul 5.6 05:16:30 10° SE 05:20:50 37° ENE 05:25:14 10° N visible
10 Jul 7.3 04:22:45 10° ENE 04:23:42 11° ENE 04:24:55 10° NE visible
11 Jul 6.3 04:59:26 10° ESE 05:03:16 25° ENE 05:07:12 10° NNE visible
13 Jul 6.8 04:42:39 10° ESE 04:45:43 18° ENE 04:48:58 10° NNE visible
14 Jul 5.4 05:20:58 10° SE 05:25:25 41° ENE 05:29:56 10° N visible
15 Jul 7.1 04:26:30 10° E 04:28:14 12° ENE 04:30:13 10° NE visible
